TimeCDT,TemperatureF,Dew PointF,Humidity,Sea Level PressureIn,VisibilityMPH,Wind Direction,Wind SpeedMPH,Gust SpeedMPH,PrecipitationIn,Events,Conditions,WindDirDegrees,DateUTC
12:15 AM,48.2,42.8,82,30.20,10.0,WSW,5.8,-,N/A,,Overcast,240,2012-09-13 05:15:00
12:35 AM,50.0,42.8,76,30.20,10.0,WSW,4.6,-,N/A,,Overcast,250,2012-09-13 05:35:00
12:55 AM,50.0,42.8,76,30.20,10.0,WSW,5.8,-,N/A,,Scattered Clouds,240,2012-09-13 05:55:00
1:15 AM,48.2,42.8,82,30.21,10.0,SW,4.6,-,N/A,,Clear,230,2012-09-13 06:15:00
1:35 AM,48.2,42.8,82,30.22,10.0,SW,5.8,-,N/A,,Scattered Clouds,230,2012-09-13 06:35:00
1:55 AM,50.0,42.8,76,30.22,10.0,SW,6.9,-,N/A,,Mostly Cloudy,230,2012-09-13 06:55:00
2:15 AM,50.0,42.8,76,30.22,10.0,SW,3.5,-,N/A,,Overcast,220,2012-09-13 07:15:00
2:35 AM,50.0,42.8,76,30.22,10.0,SW,9.2,-,N/A,,Overcast,230,2012-09-13 07:35:00
3:35 AM,48.2,42.8,82,30.23,10.0,WSW,5.8,-,N/A,,Overcast,240,2012-09-13 08:35:00
3:55 AM,48.2,42.8,82,30.23,10.0,WSW,5.8,-,N/A,,Overcast,240,2012-09-13 08:55:00
4:15 AM,50.0,42.8,76,30.22,10.0,WSW,5.8,-,N/A,,Overcast,250,2012-09-13 09:15:00
4:55 AM,50.0,44.6,82,30.22,10.0,West,6.9,-,N/A,Rain,Light Rain,280,2012-09-13 09:55:00
5:15 AM,50.0,44.6,82,30.22,10.0,West,3.5,-,N/A,Rain,Light Rain,270,2012-09-13 10:15:00
5:55 AM,48.2,46.4,93,30.22,10.0,Calm,Calm,-,N/A,,Overcast,0,2012-09-13 10:55:00
6:15 AM,48.2,46.4,93,30.22,10.0,WSW,3.5,-,N/A,,Overcast,250,2012-09-13 11:15:00
6:35 AM,48.2,46.4,93,30.23,10.0,WSW,4.6,-,N/A,,Overcast,240,2012-09-13 11:35:00
6:55 AM,50.0,46.4,87,30.23,10.0,WSW,3.5,-,N/A,,Overcast,240,2012-09-13 11:55:00
7:35 AM,50.0,46.4,87,30.24,10.0,WSW,5.8,-,N/A,,Overcast,240,2012-09-13 12:35:00
7:55 AM,50.0,44.6,82,30.24,10.0,WSW,5.8,-,N/A,,Mostly Cloudy,240,2012-09-13 12:55:00
8:15 AM,50.0,44.6,82,30.24,10.0,WSW,5.8,-,N/A,,Clear,250,2012-09-13 13:15:00
8:35 AM,51.8,44.6,76,30.24,10.0,WSW,5.8,-,N/A,,Clear,240,2012-09-13 13:35:00
8:55 AM,51.8,44.6,76,30.25,10.0,West,6.9,-,N/A,,Clear,260,2012-09-13 13:55:00
9:15 AM,51.8,44.6,76,30.25,10.0,WSW,4.6,-,N/A,,Clear,250,2012-09-13 14:15:00
9:35 AM,53.6,44.6,72,30.26,10.0,WSW,6.9,-,N/A,,Clear,250,2012-09-13 14:35:00
10:15 AM,53.6,42.8,67,30.27,10.0,West,5.8,-,N/A,,Clear,280,2012-09-13 15:15:00
10:35 AM,53.6,41.0,62,30.27,10.0,West,8.1,-,N/A,,Clear,280,2012-09-13 15:35:00
10:55 AM,55.4,41.0,58,30.28,10.0,West,9.2,-,N/A,,Clear,270,2012-09-13 15:55:00
11:15 AM,55.4,37.4,51,30.28,10.0,WNW,5.8,-,N/A,,Clear,300,2012-09-13 16:15:00
11:35 AM,55.4,37.4,51,30.28,10.0,West,12.7,17.3,N/A,,Clear,280,2012-09-13 16:35:00
11:55 AM,59.0,37.4,45,30.27,10.0,West,10.4,20.7,N/A,,Clear,270,2012-09-13 16:55:00
12:15 PM,59.0,33.8,39,30.27,10.0,WNW,10.4,18.4,N/A,,Clear,300,2012-09-13 17:15:00
12:35 PM,59.0,33.8,39,30.26,10.0,West,10.4,17.3,N/A,,Clear,280,2012-09-13 17:35:00
12:55 PM,60.8,33.8,36,30.26,10.0,WNW,11.5,21.9,N/A,,Clear,290,2012-09-13 17:55:00
1:15 PM,59.0,32.0,36,30.26,10.0,WNW,15.0,20.7,N/A,,Clear,290,2012-09-13 18:15:00
1:55 PM,62.6,28.4,27,30.25,10.0,WNW,13.8,21.9,N/A,,Clear,300,2012-09-13 18:55:00
2:15 PM,60.8,26.6,27,30.25,10.0,NW,12.7,20.7,N/A,,Clear,310,2012-09-13 19:15:00
2:55 PM,60.8,28.4,29,30.25,10.0,WNW,10.4,25.3,N/A,,Clear,290,2012-09-13 19:55:00
3:15 PM,62.6,30.2,30,30.25,10.0,WNW,10.4,23.0,N/A,,Clear,300,2012-09-13 20:15:00
3:35 PM,64.4,30.2,28,30.25,10.0,NW,10.4,20.7,N/A,,Clear,310,2012-09-13 20:35:00
3:55 PM,62.6,28.4,27,30.25,10.0,North,11.5,17.3,N/A,,Clear,350,2012-09-13 20:55:00
4:15 PM,62.6,28.4,27,30.25,10.0,WNW,12.7,21.9,N/A,,Clear,290,2012-09-13 21:15:00
4:55 PM,62.6,30.2,30,30.26,10.0,NW,10.4,16.1,N/A,,Clear,320,2012-09-13 21:55:00
5:15 PM,62.6,30.2,30,30.26,10.0,NNW,16.1,19.6,N/A,,Scattered Clouds,330,2012-09-13 22:15:00
5:35 PM,62.6,30.2,30,30.26,10.0,NW,12.7,20.7,N/A,,Scattered Clouds,320,2012-09-13 22:35:00
5:55 PM,60.8,30.2,31,30.26,10.0,NW,8.1,-,N/A,,Clear,310,2012-09-13 22:55:00
6:15 PM,60.8,30.2,31,30.26,10.0,NNW,6.9,-,N/A,,Clear,330,2012-09-13 23:15:00
6:55 PM,55.4,33.8,44,30.27,10.0,Calm,Calm,-,N/A,,Clear,0,2012-09-13 23:55:00
7:35 PM,48.2,37.4,66,30.28,10.0,Calm,Calm,-,N/A,,Clear,0,2012-09-14 00:35:00
8:15 PM,44.6,37.4,76,30.28,10.0,Calm,Calm,-,N/A,,Clear,0,2012-09-14 01:15:00
8:35 PM,42.8,37.4,81,30.29,10.0,Calm,Calm,-,N/A,,Clear,0,2012-09-14 01:35:00
9:15 PM,39.2,35.6,87,30.29,10.0,Calm,Calm,-,N/A,,Clear,0,2012-09-14 02:15:00
9:35 PM,41.0,39.2,93,30.29,10.0,Calm,Calm,-,N/A,,Clear,0,2012-09-14 02:35:00
9:55 PM,39.2,37.4,93,30.29,10.0,Calm,Calm,-,N/A,,Clear,0,2012-09-14 02:55:00
10:15 PM,39.2,37.4,93,30.30,10.0,Calm,Calm,-,N/A,,Clear,0,2012-09-14 03:15:00
10:55 PM,37.4,37.4,100,30.29,10.0,Calm,Calm,-,N/A,,Clear,0,2012-09-14 03:55:00
11:15 PM,37.4,35.6,93,30.29,10.0,Calm,Calm,-,N/A,,Clear,0,2012-09-14 04:15:00
11:35 PM,37.4,37.4,100,30.29,10.0,Calm,Calm,-,N/A,,Clear,0,2012-09-14 04:35:00